• In Sweden
  • List of Countries
  • For 7 days
  • Water Temperature
  • Satellite Maps
  • Weather Map
  • Weather Widgets
  • user-avatar
    Login

    Hourly Weather Annigeri

    Today, 21 October, Sunday

    Time Temperature Precipitation Wind Pressure Humidity
    00:00 +25°C° 0 mm 1 mps 708 mmHg 56%
    01:00 +25°C° 0 mm 2 mps 708 mmHg 57%
    02:00 +25°C° 0 mm 2 mps 708 mmHg 57%
    03:00 +24°C° 0 mm 2 mps 708 mmHg 58%
    04:00 +24°C° 0 mm 2 mps 708 mmHg 60%
    05:00 +24°C° 0 mm 2 mps 708 mmHg 61%
    06:00 +25°C° 0 mm 2 mps 708 mmHg 59%
    07:00 +26°C° 0 mm 2 mps 709 mmHg 57%
    08:00 +27°C° 0 mm 2 mps 709 mmHg 55%
    09:00 +28°C° 0 mm 3 mps 709 mmHg 51%
    10:00 +30°C° 0 mm 4 mps 709 mmHg 48%
    11:00 +32°C° 0 mm 4 mps 709 mmHg 44%
    12:00 +33°C° 0 mm 4 mps 709 mmHg 42%
    13:00 +33°C° 0 mm 4 mps 708 mmHg 40%
    14:00 +34°C° 0 mm 4 mps 707 mmHg 37%
    15:00 +33°C° 0 mm 4 mps 707 mmHg 40%
    16:00 +33°C° 0 mm 3 mps 707 mmHg 42%
    17:00 +31°C° 0 mm 3 mps 707 mmHg 44%
    18:00 +30°C° 0 mm 3 mps 708 mmHg 46%
    19:00 +29°C° 0 mm 3 mps 708 mmHg 48%
    20:00 +28°C° 0 mm 3 mps 708 mmHg 50%
    21:00 +27°C° 0 mm 2 mps 708 mmHg 50%
    22:00 +27°C° 0 mm 2 mps 708 mmHg 51%
    23:00 +27°C° 0 mm 2 mps 708 mmHg 52%

    Tomorrow, 22 October, Monday

    Time Temperature Precipitation Wind Pressure Humidity
    00:00 +26°C° 0 mm 2 mps 708 mmHg 54%
    01:00 +26°C° 0 mm 2 mps 708 mmHg 55%
    02:00 +25°C° 0 mm 2 mps 707 mmHg 56%
    03:00 +25°C° 0 mm 2 mps 707 mmHg 59%
    04:00 +24°C° 0 mm 2 mps 707 mmHg 61%
    05:00 +24°C° 0 mm 2 mps 707 mmHg 63%
    06:00 +25°C° 0 mm 2 mps 708 mmHg 61%
    07:00 +26°C° 0 mm 3 mps 709 mmHg 58%
    08:00 +27°C° 0 mm 3 mps 709 mmHg 56%
    09:00 +29°C° 0 mm 3 mps 709 mmHg 51%
    10:00 +30°C° 0 mm 4 mps 709 mmHg 46%
    11:00 +33°C° 0 mm 4 mps 709 mmHg 42%
    12:00 +33°C° 0 mm 4 mps 709 mmHg 38%
    13:00 +34°C° 0 mm 4 mps 708 mmHg 35%
    14:00 +35°C° 0 mm 4 mps 707 mmHg 31%
    15:00 +34°C° 0 mm 3 mps 707 mmHg 34%
    16:00 +33°C° 0 mm 3 mps 707 mmHg 37%
    17:00 +31°C° 0 mm 2 mps 707 mmHg 39%
    18:00 +30°C° 0 mm 2 mps 707 mmHg 41%
    19:00 +29°C° 0 mm 2 mps 707 mmHg 43%
    20:00 +28°C° 0 mm 2 mps 708 mmHg 45%
    21:00 +28°C° 0 mm 2 mps 708 mmHg 47%
    22:00 +27°C° 0 mm 2 mps 708 mmHg 49%
    23:00 +27°C° 0 mm 2 mps 708 mmHg 51%

    Day after tomorrow, 23 October, Tuesday

    Time Temperature Precipitation Wind Pressure Humidity
    00:00 +27°C° 0 mm 2 mps 707 mmHg 52%
    01:00 +26°C° 0 mm 2 mps 707 mmHg 53%
    02:00 +26°C° 0 mm 2 mps 707 mmHg 55%
    03:00 +25°C° 0 mm 2 mps 707 mmHg 57%
    04:00 +25°C° 0 mm 2 mps 707 mmHg 59%
    05:00 +25°C° 0 mm 2 mps 707 mmHg 61%
    06:00 +26°C° 0 mm 1 mps 707 mmHg 59%
    07:00 +27°C° 0 mm 1 mps 708 mmHg 56%
    08:00 +28°C° 0 mm 1 mps 709 mmHg 54%
    09:00 +29°C° 0 mm 2 mps 709 mmHg 51%
    10:00 +31°C° 0 mm 2 mps 709 mmHg 48%
    11:00 +33°C° 0 mm 3 mps 709 mmHg 45%
    12:00 +33°C° 0 mm 3 mps 708 mmHg 44%
    13:00 +33°C° 0 mm 3 mps 707 mmHg 44%
    14:00 +33°C° 0 mm 3 mps 707 mmHg 44%
    15:00 +32°C° 0 mm 2 mps 707 mmHg 46%
    16:00 +32°C° 0 mm 2 mps 707 mmHg 48%
    17:00 +31°C° 0 mm 2 mps 707 mmHg 50%
    18:00 +31°C° 0 mm 2 mps 707 mmHg 51%
    19:00 +30°C° 0 mm 2 mps 708 mmHg 52%
    20:00 +29°C° 0 mm 2 mps 708 mmHg 54%
    21:00 +28°C° 0 mm 2 mps 708 mmHg 56%
    22:00 +28°C° 0 mm 2 mps 708 mmHg 58%
    23:00 +27°C° 0 mm 2 mps 708 mmHg 60%

    24 October, Wednesday

    Time Temperature Precipitation Wind Pressure Humidity
    00:00 +27°C° 0 mm 2 mps 708 mmHg 62%
    01:00 +27°C° 0 mm 2 mps 707 mmHg 64%
    02:00 +26°C° 0 mm 1 mps 707 mmHg 65%
    03:00 +26°C° 0.2 mm 1 mps 707 mmHg 67%
    04:00 +25°C° 0.2 mm 1 mps 707 mmHg 68%
    05:00 +25°C° 0.2 mm 1 mps 707 mmHg 70%
    06:00 +26°C° 0.2 mm 2 mps 708 mmHg 67%
    07:00 +27°C° 0.2 mm 2 mps 708 mmHg 65%
    08:00 +28°C° 0.2 mm 2 mps 709 mmHg 62%
    09:00 +29°C° 0.3 mm 2 mps 709 mmHg 57%
    10:00 +30°C° 0.3 mm 3 mps 709 mmHg 52%
    11:00 +31°C° 0.3 mm 3 mps 709 mmHg 48%
    12:00 +33°C° 0.1 mm 3 mps 708 mmHg 47%
    13:00 +33°C° 0.1 mm 3 mps 708 mmHg 46%
    14:00 +32°C° 0.1 mm 2 mps 707 mmHg 46%
    15:00 +31°C° 0 mm 2 mps 707 mmHg 48%
    16:00 +31°C° 0 mm 2 mps 707 mmHg 50%
    17:00 +30°C° 0 mm 2 mps 707 mmHg 53%
    18:00 +30°C° 0 mm 2 mps 707 mmHg 54%
    19:00 +29°C° 0 mm 2 mps 708 mmHg 56%
    20:00 +28°C° 0 mm 2 mps 708 mmHg 58%
    21:00 +28°C° 0 mm 2 mps 708 mmHg 59%
    22:00 +27°C° 0 mm 2 mps 708 mmHg 61%
    23:00 +27°C° 0 mm 2 mps 708 mmHg 62%

    25 October, Thursday

    Time Temperature Precipitation Wind Pressure Humidity
    00:00 +27°C° 0.1 mm 2 mps 707 mmHg 64%
    01:00 +26°C° 0.1 mm 2 mps 707 mmHg 66%
    02:00 +26°C° 0.1 mm 2 mps 707 mmHg 68%
    03:00 +25°C° 0.2 mm 2 mps 707 mmHg 70%
    04:00 +25°C° 0.2 mm 2 mps 707 mmHg 72%
    05:00 +25°C° 0.2 mm 2 mps 707 mmHg 74%
    06:00 +26°C° 0 mm 3 mps 708 mmHg 70%
    07:00 +26°C° 0 mm 3 mps 709 mmHg 66%
    08:00 +27°C° 0 mm 4 mps 709 mmHg 62%
    09:00 +29°C° 0 mm 4 mps 709 mmHg 57%
    10:00 +30°C° 0 mm 5 mps 709 mmHg 52%
    11:00 +32°C° 0 mm 5 mps 709 mmHg 46%
    12:00 +33°C° 0 mm 5 mps 708 mmHg 46%
    13:00 +33°C° 0 mm 5 mps 708 mmHg 45%
    14:00 +33°C° 0 mm 5 mps 707 mmHg 44%
    15:00 +32°C° 0 mm 4 mps 707 mmHg 45%
    16:00 +32°C° 0 mm 4 mps 707 mmHg 46%
    17:00 +32°C° 0 mm 4 mps 707 mmHg 48%
    18:00 +30°C° 0 mm 4 mps 708 mmHg 49%
    19:00 +29°C° 0 mm 3 mps 708 mmHg 51%
    20:00 +28°C° 0 mm 3 mps 708 mmHg 53%
    21:00 +27°C° 0 mm 3 mps 708 mmHg 56%
    22:00 +27°C° 0 mm 3 mps 708 mmHg 59%
    23:00 +26°C° 0 mm 3 mps 708 mmHg 62%

    26 October, Friday

    Time Temperature Precipitation Wind Pressure Humidity
    00:00 +26°C° 0.1 mm 4 mps 708 mmHg 66%
    01:00 +25°C° 0.1 mm 4 mps 708 mmHg 70%
    02:00 +25°C° 0.1 mm 4 mps 707 mmHg 74%
    03:00 +25°C° 0.1 mm 4 mps 708 mmHg 75%
    04:00 +23°C° 0.1 mm 4 mps 708 mmHg 76%
    05:00 +24°C° 0.1 mm 3 mps 708 mmHg 78%
    06:00 +25°C° 0 mm 4 mps 709 mmHg 73%
    07:00 +26°C° 0 mm 5 mps 710 mmHg 67%
    08:00 +27°C° 0 mm 6 mps 710 mmHg 62%
    09:00 +28°C° 0 mm 6 mps 710 mmHg 53%
    10:00 +30°C° 0 mm 7 mps 710 mmHg 43%
    11:00 +32°C° 0 mm 7 mps 710 mmHg 34%
    12:00 +33°C° 0 mm 7 mps 709 mmHg 33%
    13:00 +33°C° 0 mm 7 mps 708 mmHg 31%
    14:00 +33°C° 0 mm 7 mps 708 mmHg 30%
    15:00 +32°C° 0 mm 6 mps 708 mmHg 33%
    16:00 +32°C° 0 mm 5 mps 708 mmHg 36%
    17:00 +30°C° 0 mm 5 mps 708 mmHg 39%
    18:00 +29°C° 0 mm 4 mps 708 mmHg 41%
    19:00 +28°C° 0 mm 4 mps 708 mmHg 43%
    20:00 +26°C° 0 mm 3 mps 709 mmHg 45%
    21:00 +26°C° 0 mm 4 mps 709 mmHg 46%
    22:00 +25°C° 0 mm 4 mps 709 mmHg 48%
    23:00 +25°C° 0 mm 4 mps 709 mmHg 49%
    Show more